Le nostre stazioni meteo in Italia

Pubblicità
Il mio iltempo24.it
Comiso, Italia (16475): Temperatura & dewpoint: 19.01.2020 06:00:00 - 25.01.2020 06:00:00 (CET)Comiso, Italia (16475): velocità del vento: 19.01.2020 06:00:00 - 25.01.2020 06:00:00 (CET)Comiso, Italia (16475): direzione del vento: 19.01.2020 06:00:00 - 25.01.2020 06:00:00 (CET)Comiso, Italia (16475): visibility: 19.01.2020 06:00:00 - 25.01.2020 06:00:00 (CET)
Data & Tempo tt [°C] td [°C] ff [km/h] ff [kn] dd vv [km]
25.01.2020 06:00:00 12,0 9,0 5 3 SE 8
25.01.2020 05:00:00 11,0 9,0 4 2 - 10
25.01.2020 04:00:00 12,0 9,0 5 3 SE 10
25.01.2020 03:00:00 12,0 9,0 5 3 SSE 10
25.01.2020 02:00:00 12,0 9,0 5 3 SE 10
25.01.2020 01:00:00 12,0 9,0 2 1 - 10
25.01.2020 00:00:00 12,0 8,0 2 1 - 10
24.01.2020 23:00:00 12,0 8,0 8 4 SE 10
24.01.2020 22:00:00 12,0 7,0 5 3 ESE 10
24.01.2020 21:00:00 12,0 8,0 5 3 - 10
24.01.2020 20:00:00 12,0 8,0 9 5 ESE 10
24.01.2020 19:00:00 12,0 8,0 5 3 ESE 10
24.01.2020 18:00:00 13,0 8,0 9 5 S 10
24.01.2020 17:00:00 13,0 8,0 8 4 SSE 10
24.01.2020 16:00:00 14,0 8,0 8 4 SSE 10
24.01.2020 15:00:00 - - - - - -
24.01.2020 14:00:00 15,0 8,0 13 7 SSE 10
24.01.2020 13:00:00 14,0 7,0 11 6 SSE 10
24.01.2020 12:00:00 14,0 7,0 11 6 - 10
24.01.2020 11:00:00 14,0 7,0 13 7 - 10
24.01.2020 10:00:00 14,0 8,0 5 3 - 10
24.01.2020 09:00:00 13,0 7,0 2 1 - 10
24.01.2020 08:00:00 9,0 6,0 5 3 E 10
24.01.2020 07:00:00 - - - - - -
24.01.2020 06:00:00 10,0 6,0 9 5 E 10
24.01.2020 05:00:00 11,0 7,0 9 5 E 10
24.01.2020 04:00:00 11,0 7,0 8 4 E 7
24.01.2020 03:00:00 10,0 7,0 8 4 E 10
24.01.2020 02:00:00 6,0 5,0 5 3 E 8
24.01.2020 01:00:00 5,0 4,0 5 3 E 7
24.01.2020 00:00:00 5,0 3,0 8 4 ENE 7
23.01.2020 23:00:00 6,0 4,0 5 3 E 10
23.01.2020 22:00:00 6,0 4,0 8 4 ENE 10
23.01.2020 21:00:00 7,0 5,0 8 4 ENE 10
23.01.2020 20:00:00 11,0 6,0 5 3 E 10
23.01.2020 19:00:00 12,0 6,0 8 4 E 10
23.01.2020 18:00:00 13,0 6,0 5 3 SSE 10
23.01.2020 17:00:00 13,0 6,0 8 4 SE 10
23.01.2020 16:00:00 14,0 6,0 4 2 - 10
23.01.2020 15:00:00 14,0 7,0 4 2 - 10
23.01.2020 14:00:00 14,0 6,0 4 2 - 10
23.01.2020 13:00:00 14,0 6,0 8 4 SO 10
23.01.2020 12:00:00 14,0 6,0 5 3 SO 10
23.01.2020 11:00:00 13,0 7,0 5 3 SSO 10
23.01.2020 10:00:00 13,0 8,0 4 2 ESE 10
23.01.2020 09:00:00 11,0 9,0 4 2 NE 10
23.01.2020 08:00:00 10,0 8,0 4 2 - 10
23.01.2020 07:00:00 10,0 8,0 5 3 ENE 10
23.01.2020 06:00:00 11,0 7,0 8 4 E 10
23.01.2020 05:00:00 10,0 7,0 5 3 NE 10
23.01.2020 04:00:00 10,0 7,0 2 1 - 10
23.01.2020 03:00:00 9,0 7,0 5 3 NE 10
23.01.2020 02:00:00 9,0 8,0 8 4 NE 10
23.01.2020 01:00:00 10,0 8,0 8 4 ENE 9
23.01.2020 00:00:00 11,0 8,0 5 3 ESE 10
22.01.2020 23:00:00 11,0 8,0 5 3 ESE 10
22.01.2020 22:00:00 11,0 8,0 4 2 - 10
22.01.2020 21:00:00 12,0 8,0 8 4 SE 10
22.01.2020 20:00:00 11,0 9,0 5 3 ENE 10
22.01.2020 19:00:00 12,0 8,0 5 3 NE 10
22.01.2020 18:00:00 12,0 8,0 9 5 ESE 10
22.01.2020 17:00:00 12,0 9,0 9 5 ESE 10
22.01.2020 16:00:00 12,0 9,0 5 3 SSE 10
22.01.2020 15:00:00 12,0 8,0 9 5 S 10
22.01.2020 14:00:00 13,0 10,0 5 3 O 10
22.01.2020 13:00:00 14,0 9,0 8 4 E 10
22.01.2020 12:00:00 13,0 9,0 9 5 E 10
22.01.2020 11:00:00 12,0 10,0 5 3 ENE 8
22.01.2020 10:00:00 11,0 10,0 8 4 NE 4,0
22.01.2020 09:00:00 11,0 10,0 4 2 - 8
22.01.2020 08:00:00 11,0 10,0 8 4 ENE 8
22.01.2020 07:00:00 10,0 9,0 5 3 NE 7
22.01.2020 06:00:00 11,0 9,0 2 1 - 4,4
22.01.2020 05:00:00 11,0 9,0 4 2 - 10
22.01.2020 04:00:00 10,0 9,0 5 3 NE 9
22.01.2020 03:00:00 11,0 10,0 5 3 NNE 7
22.01.2020 02:00:00 11,0 10,0 5 3 NNO 4,6
22.01.2020 01:00:00 11,0 10,0 4 2 - 7
22.01.2020 00:00:00 12,0 9,0 2 1 - 10
21.01.2020 23:00:00 12,0 9,0 4 2 - 10
21.01.2020 22:00:00 13,0 9,0 11 6 E 10
21.01.2020 21:00:00 12,0 9,0 8 4 ESE 9
21.01.2020 20:00:00 13,0 9,0 9 5 E 8
21.01.2020 19:00:00 13,0 9,0 11 6 ESE 10
21.01.2020 18:00:00 13,0 8,0 11 6 E 10
21.01.2020 17:00:00 13,0 8,0 15 8 ESE 10
21.01.2020 16:00:00 14,0 8,0 13 7 ESE 10
21.01.2020 15:00:00 16,0 8,0 15 8 ESE 10
21.01.2020 14:00:00 16,0 9,0 15 8 SE 10
21.01.2020 13:00:00 - - - - - -
21.01.2020 12:00:00 15,0 9,0 13 7 SE 10
21.01.2020 11:00:00 15,0 9,0 11 6 SE 10
21.01.2020 10:00:00 14,0 10,0 13 7 SE 10
21.01.2020 09:00:00 13,0 10,0 15 8 SE 10
21.01.2020 08:00:00 13,0 9,0 15 8 ESE 10
21.01.2020 07:00:00 13,0 10,0 11 6 ESE 10
21.01.2020 06:00:00 13,0 10,0 9 5 ESE 10
21.01.2020 05:00:00 13,0 9,0 11 6 ESE 10
21.01.2020 04:00:00 13,0 9,0 9 5 SE 10
21.01.2020 03:00:00 13,0 9,0 11 6 ESE 10
21.01.2020 02:00:00 13,0 10,0 13 7 E 10
21.01.2020 01:00:00 13,0 9,0 13 7 E 10
21.01.2020 00:00:00 13,0 8,0 11 6 E 10
20.01.2020 23:00:00 13,0 8,0 18 10 E 10
20.01.2020 22:00:00 13,0 8,0 15 8 E 10
20.01.2020 21:00:00 13,0 8,0 15 8 E 10
20.01.2020 20:00:00 13,0 7,0 16 9 E 10
20.01.2020 19:00:00 13,0 8,0 13 7 E 10
20.01.2020 18:00:00 13,0 8,0 21 11 ESE 10
20.01.2020 17:00:00 13,0 8,0 22 12 ESE 10
20.01.2020 16:00:00 14,0 8,0 26 14 ESE 10
20.01.2020 15:00:00 15,0 8,0 26 14 ESE 10
20.01.2020 14:00:00 14,0 8,0 29 16 E 10
20.01.2020 13:00:00 14,0 8,0 28 15 ESE 10
20.01.2020 12:00:00 15,0 7,0 22 12 ESE 10
20.01.2020 11:00:00 14,0 7,0 26 14 ESE 10
20.01.2020 10:00:00 13,0 7,0 29 16 ESE 10
20.01.2020 09:00:00 12,0 7,0 24 13 ESE 10
20.01.2020 08:00:00 12,0 7,0 21 11 ESE 10
20.01.2020 07:00:00 11,0 7,0 21 11 ESE 10
20.01.2020 06:00:00 11,0 7,0 21 11 ESE 10
20.01.2020 05:00:00 11,0 6,0 21 11 ESE 10
20.01.2020 04:00:00 11,0 6,0 15 8 ESE 10
20.01.2020 03:00:00 11,0 6,0 18 10 E 10
20.01.2020 02:00:00 10,0 6,0 15 8 ESE 10
20.01.2020 01:00:00 10,0 6,0 13 7 ESE 10
20.01.2020 00:00:00 10,0 6,0 13 7 ESE 10
19.01.2020 23:00:00 10,0 5,0 11 6 ESE 10
19.01.2020 22:00:00 5,0 3,0 8 4 ENE 10
19.01.2020 21:00:00 4,0 2,0 5 3 E 10
19.01.2020 20:00:00 4,0 2,0 8 4 ENE 10
19.01.2020 19:00:00 5,0 3,0 8 4 ENE 10
19.01.2020 18:00:00 9,0 4,0 2 1 - 10
19.01.2020 17:00:00 12,0 5,0 9 5 SO 10
19.01.2020 16:00:00 14,0 3,0 13 7 OSO 10
19.01.2020 15:00:00 15,0 2,0 13 7 OSO 10
19.01.2020 14:00:00 16,0 -1,0 5 3 - 10
19.01.2020 13:00:00 15,0 -1,0 5 3 SO 10
19.01.2020 12:00:00 15,0 1,0 5 3 O 10
19.01.2020 11:00:00 13,0 1,0 4 2 - 10
19.01.2020 10:00:00 11,0 4,0 4 2 - 10
19.01.2020 09:00:00 6,0 4,0 5 3 ENE 10
19.01.2020 08:00:00 2,0 0,0 8 4 ENE 10
19.01.2020 07:00:00 2,0 0,0 8 4 NE 10
19.01.2020 06:00:00 1,0 -1,0 5 3 E 9

tt = Temperatura
td = dewpoint
ff = velocità del vento
dd = direzione del vento
vv = visibility

Stazioni seguenti

WeatherPro
AMSI
MeteoEarth